Regional Weather Roundup
Issued by NWS

Home | Current Version | Previous Version | Text Only | Print | Product List | Glossary Off
Versions: 1 2 3 4 5 6 7 8 9 10 11 12 13 14 15 16 17 18 19 20 21 22 23 24 25 26 27 28 29 30 31 32 33 34 35 36 37 38 39 40 41 42 43 44 45 46 47 48 49 50

000
ASUS43 KOAX 240902
RWRNE

WEATHER ROUNDUP FOR NEBRASKA
NATIONAL WEATHER SERVICE OMAHA NE
400 AM CDT TUE MAY 24 2016

NOTES: SATELLITE DATA IS BEING USED TO AUGMENT CLOUD COVER ABOVE
       12000 FEET.
       "FAIR" INDICATES FEW OR NO CLOUDS BELOW 12,000 FEET WITH NO
       SIGNIFICANT WEATHER AND/OR OBSTRUCTIONS TO VISIBILITY.

  * THESE STATIONS DO NOT REPORT WEATHER SUCH AS RAIN...SNOW OR FOG.

NEZ001>004-019>022-054>056-241000-
NEBRASKA PANHANDLE

CITY           SKY/WX    TMP DP  RH WIND       PRES   REMARKS
SCOTTSBLUFF    CLEAR     42  38  85 N5        29.89F
ALLIANCE       CLEAR     37  36  96 W3        29.88F
CHADRON        CLEAR     47  38  71 CALM      29.85S
KIMBALL        CLEAR     41  39  92 W7        29.93S
SIDNEY         CLOUDY    41  38  89 NW10      29.89F
$$

NEZ057>060-069>072-079>082-241000-
SOUTHWEST NEBRASKA

CITY           SKY/WX    TMP DP  RH WIND       PRES   REMARKS
NORTH PLATTE   CLOUDY    50  47  89 CALM      29.86S
IMPERIAL       LGT RAIN  54  49  83 S14       29.88F
LEXINGTON      CLOUDY    54  50  87 NW3       29.84F
MCCOOK         CLOUDY    55  47  74 NE12      29.82F
$$

NEZ005>010-023>029-035>040-094-241000-
NORTH CENTRAL NEBRASKA

CITY           SKY/WX    TMP DP  RH WIND       PRES   REMARKS
VALENTINE      CLEAR     48  42  80 W9        29.81S
BROKEN BOW     CLOUDY    48  44  86 CALM      29.85R
ORD            FOG       51  51 100 S3        29.82S VSB 1
$$

NEZ041-046>049-061>064-073>077-083>087-241000-
SOUTH CENTRAL NEBRASKA

CITY           SKY/WX    TMP DP  RH WIND       PRES   REMARKS
GRAND ISLAND   CLOUDY    60  58  92 NW6       29.84S
AURORA         CLOUDY    61  60  97 S3        29.83R
HASTINGS       CLOUDY    61  59  93 S7        29.83S
HEBRON         CLOUDY    62  58  86 CALM      29.84R
HOLDREGE       CLOUDY    63  61  93 CALM      29.86R
KEARNEY *      CLOUDY    61  57  88 CALM      29.85R
YORK           CLOUDY    59  59 100 S3        29.83S
$$

NEZ011>018-030>034-042>045-241000-
NORTHEAST NEBRASKA

CITY           SKY/WX    TMP DP  RH WIND       PRES   REMARKS
NORFOLK        CLOUDY    57  55  93 SE3       29.82R
ALBION         CLOUDY    57  55  92 SE6       29.83S
BLAIR          CLOUDY    60  58  94 CALM      29.83F
FREMONT        CLOUDY    58  58  99 E3        29.83F
TEKAMAH        CLOUDY    61  59  93 S6        29.83R
$$

NEZ050>053-065>068-078-088>093-241000-
SOUTHEAST NEBRASKA

CITY           SKY/WX    TMP DP  RH WIND       PRES   REMARKS
LINCOLN        CLOUDY    60  58  92 NE3       29.81F
OMAHA EPPLEY   CLOUDY    60  58  92 E3        29.83F
BEATRICE       CLOUDY    64  61  91 SW5       29.80S
FALLS CITY     CLOUDY    66  61  84 S12       29.82F
NEBRASKA CITY  CLOUDY    64  64 100 CALM      29.83F
PLATTSMOUTH    CLOUDY    64  63  96 E5        29.84F
$$

NEZ044-045-051>053-067-241000-
OMAHA AREA

CITY           SKY/WX    TMP DP  RH WIND       PRES   REMARKS
OMAHA EPPLEY   CLOUDY    60  58  92 E3        29.83F
BLAIR          CLOUDY    60  58  94 CALM      29.83F
FREMONT        CLOUDY    58  58  99 E3        29.83F
PLATTSMOUTH    CLOUDY    64  63  96 E5        29.84F
WAHOO          FAIR      59  57  94 SE5       29.83F
$$



USA.gov is the U.S. government's official web portal to all federal, state and local government web resources and services.